Meteo Giornale » Osservazioni meteo Giappone » Chitose Ab
ore: 22:00 - Osservazioni Meteo Chitose Ab
Lat. 42° 48' N Lon. 141° 40' E Alt. 27 metri s.l.m.
18 °C
Pioggia Foschia
Temp. 24 Ore
15 °C
24 °C
Sud-Est
18.5 Km/h
Dew point 17 °C
Umidità 93 %
Visibilità 5 Km
Il sole sorge alle ore 04:57
Il sole tramonta alle ore 18:09
| Data e Ora | Cielo e Fenomeni | T °C | DP °C | Um. % | Pres. hPa | Vis. km | Vento km/h | |
|---|---|---|---|---|---|---|---|---|
| Oggi h: 22:00 | Pioggia Foschia | 18 | 17 | 93 | 1018 | 5 | SE 18.5 | |
| Oggi h: 21:30 | Pioggia | 18 | 17 | 93 | 1019 | 7 | S/SE 16.7 | |
| Oggi h: 21:00 | Pioggia | 18 | 16 | 88 | 1019 | 8 | S/SE 20.3 | |
| Oggi h: 20:30 | Pioggia | 18 | 17 | 93 | 1019 | 10 | S 22.2 | |
| Oggi h: 20:00 | Pioggia | 19 | 17 | 88 | 1019 | 10 | S/SE 20.3 | |
| Oggi h: 19:30 | Pioggia | 19 | 17 | 88 | 1019 | 10 | S/SE 18.5 | |
| Oggi h: 19:00 | Pioggia | 19 | 17 | 88 | 1019 | 10 | S 22.2 | |
| Oggi h: 18:30 | Pioggia | 20 | 17 | 82 | 1019 | 10 | S 20.3 | |
| Oggi h: 18:00 | Molto Nuvoloso | 20 | 17 | 82 | 1018 | 10 | S/SE 16.7 | |
| Oggi h: 17:30 | Molto Nuvoloso | 20 | 17 | 82 | 1018 | 10 | S/SE 20.3 | |
| Oggi h: 17:00 | Molto Nuvoloso | 21 | 17 | 77 | 1019 | 10 | S/SE 20.3 | |
| Oggi h: 16:30 | Molto Nuvoloso | 21 | 17 | 77 | 1019 | 10 | S 24 | |
| Oggi h: 16:00 | Molto Nuvoloso | 21 | 16 | 73 | 1019 | 10 | S/SE 24 | |
| Oggi h: 15:30 | Molto Nuvoloso | 21 | 16 | 73 | 1019 | 10 | S 25.9 | |
| Oggi h: 15:00 | Molto Nuvoloso | 21 | 16 | 73 | 1019 | 10 | S 27.8 | |
| Oggi h: 14:30 | Molto Nuvoloso | 22 | 16 | 68 | 1019 | 10 | S 27.8 | |
| Oggi h: 14:00 | Molto Nuvoloso | 22 | 16 | 68 | 1019 | 10 | S 27.8 | |
| Oggi h: 13:30 | Molto Nuvoloso | 23 | 16 | 64 | 1019 | 10 | S 27.8 | |
| Oggi h: 13:00 | Molto Nuvoloso | 23 | 16 | 64 | 1020 | 10 | S/SE 31.5 | |
| Oggi h: 12:30 | Molto Nuvoloso | 23 | 16 | 64 | 1020 | 10 | S 29.6 | |
| Oggi h: 12:00 | Molto Nuvoloso | 23 | 17 | 68 | 1020 | 10 | S 33.3 | |
| Oggi h: 11:30 | Molto Nuvoloso | 22 | 16 | 68 | 1020 | 10 | S 31.5 | |
| Oggi h: 11:00 | Molto Nuvoloso | 23 | 15 | 60 | 1020 | 10 | S/SE 31.5 | |
| Oggi h: 10:30 | Molto Nuvoloso | 24 | 16 | 60 | 1020 | 10 | S/SE 25.9 | |
| Oggi h: 10:00 | Molto Nuvoloso | 22 | 15 | 64 | 1020 | 10 | S/SE 24 | |
| Oggi h: 09:30 | Molto Nuvoloso | 21 | 16 | 73 | 1020 | 10 | S 22.2 | |
| Oggi h: 09:00 | Molto Nuvoloso | 21 | 16 | 73 | 1020 | 10 | S/SE 20.3 | |
| Oggi h: 08:30 | Molto Nuvoloso | 21 | 17 | 77 | 1020 | 10 | S/SE 14.8 | |
| Oggi h: 08:00 | Molto Nuvoloso | 20 | 17 | 82 | 1020 | 10 | S/SE 9.3 | |
| Oggi h: 07:30 | Molto Nuvoloso | 19 | 17 | 88 | 1020 | 10 | S/SE 7.4 | |
| Oggi h: 07:00 | Molto Nuvoloso | 18 | 15 | 82 | 1020 | 10 | N 3.7 | |
| Oggi h: 06:30 | Molto Nuvoloso | 17 | 15 | 88 | 1020 | 10 | N 3.7 | |
| Oggi h: 06:00 | Molto Nuvoloso | 16 | 15 | 93 | 1020 | 10 | N 1.8 | |
| Oggi h: 05:30 | Molto Nuvoloso | 15 | 14 | 93 | 1020 | 10 | N 3.7 | |
| Oggi h: 05:00 | Molto Nuvoloso | 15 | 14 | 93 | 1020 | 10 | N 1.8 | |
| Oggi h: 04:30 | Molto Nuvoloso | 15 | 14 | 93 | 1020 | 10 | N 3.7 | |
| Oggi h: 04:00 | Molto Nuvoloso | 15 | 14 | 93 | 1020 | 10 | N 0 | |
| Oggi h: 03:30 | Molto Nuvoloso | 15 | 14 | 93 | 1020 | 10 | N 3.7 | |
| Oggi h: 03:00 | Molto Nuvoloso | 16 | 14 | 87 | 1020 | 10 | N 3.7 | |
| Oggi h: 02:30 | Molto Nuvoloso | 16 | 15 | 93 | 1020 | 10 | N 1.8 | |
| Oggi h: 02:00 | Molto Nuvoloso | 16 | 15 | 93 | 1019 | 10 | N 1.8 | |
| Oggi h: 01:30 | Molto Nuvoloso | 16 | 15 | 93 | 1019 | 10 | N 1.8 | |
| Oggi h: 01:00 | Molto Nuvoloso | 16 | 15 | 93 | 1019 | 10 | N 3.7 | |
| Oggi h: 00:30 | Molto Nuvoloso | 16 | 15 | 93 | 1019 | 10 | N 3.7 | |
| Oggi h: 00:00 | Molto Nuvoloso | 16 | 15 | 93 | 1019 | 10 | N 3.7 | |
| Ieri h: 23:30 | Molto Nuvoloso | 16 | 15 | 93 | 1019 | 10 | N 3.7 | |
| Ieri h: 23:00 | Molto Nuvoloso | 17 | 15 | 88 | 1019 | 10 | N 5.5 | |



